Preview of NWS' New Version of Forecast
This preview is not operational and should not be used for support decisions.

Regional Weather Roundup (RWR)

Issued by National Weather Service (NWS)

                            
000
ASUS42 KTBW 181017
RWRFL 
FLORIDA REGIONAL WEATHER ROUNDUP
NATIONAL WEATHER SERVICE TAMPA BAY RUSKIN FL
500 AM EST MON FEB 18 2019

NOTE: "FAIR" INDICATES FEW OR NO CLOUDS BELOW 12,000 FEET WITH NO
SIGNIFICANT WEATHER AND/OR OBSTRUCTIONS TO VISIBILITY.

FLZ001>010-012>015-112-114-115-181100-
PANHANDLE FLORIDA
  
CITY           SKY/WX    TMP DP  RH WIND       PRES   REMARKS
PENSACOLA      CLOUDY    59  54  83 N13       29.97S                  
PENSACOLA NAS  CLOUDY    58  55  90 N16G22    29.96R                  
MILTON NAS     CLOUDY    57  55  93 VRB5      29.98                   
CRESTVIEW      CLOUDY    58  54  86 N8        29.99S                  
DUKE FIELD     CLOUDY    58  55  89 N14       29.98S                  
VALPARAISO     CLOUDY    60  60 100 N13       29.96R                  
MARY ESTHER    CLOUDY    59  59 100 N17       29.95                   
PANAMA CITY    CLOUDY    69  68  96 S5        29.94S FOG              
TYNDALL AFB    FOG       66  66 100 S6        29.95R VSB 1/4          
APALACHICOLA   FOG       67  67 100 S9        29.95R VSB 1/2          

STATION/POSITION SKY/WX   TEMP    WIND        PRES    WAVE   SWELL
                          AIR SEA DIR/SP/G            HT/PER HT/PER
                          (F)     (DEG/KT/KT) (MB)    (FT/S) (FT/S)
30.1N   87.6W              59      10/ 25/ 31   N/A     4/ 7   3/ 7
29.2N   88.2W                      30/  2/  4 1013.8R   4/ 8   3/ 8
PANAMA CITY BEAC           66 63   CALM  /  7 1014.1F
TOWER C                    69     190/ 18/ 19 1014.4S

$$
FLZ011-016>038-118-127-128-134-139-239-181100-
NORTH FLORIDA
  
CITY           SKY/WX    TMP DP  RH WIND       PRES   REMARKS
MARIANNA       CLOUDY    70  70 100 SW5       29.94S                  
TALLAHASSEE    LGT RAIN  70  70 100 SW5       29.96S FOG              
PERRY          FAIR      70  68  93 SW9       29.98S                  
LIVE OAK       CLOUDY    68  70 100 CALM      29.98R                  
CROSS CITY     CLOUDY    70  66  85 S10       29.99S                  
LAKE CITY      MOCLDY    66  64  94 SW5       30.00R                  
GAINESVILLE    MOCLDY    70  65  84 SW3       30.02R                  
WILLISTON        N/A    N/A N/A N/A MISG        N/A                   
PALATKA        CLOUDY    68  68 100 SW3       30.01R                  
MAYPORT NAS    FAIR      64  63  96 SW6       29.98S                  
JACKSONVILLE   FAIR      69  65  86 SW8       29.98R                  
JAX NAS        FAIR      67  65  93 S6        30.00R                  
JAX CECIL      CLOUDY    68  64  88 SW6       29.99R                  
FERNANDINA BEA FAIR      65  63  96 SW6       29.98S                  
ST AUGUSTINE   CLOUDY    69  65  86 S6        30.01R                  
PALM COAST     CLOUDY    64  63  96 CALM      30.01S                  

STATION/POSITION SKY/WX   TEMP    WIND        PRES    WAVE   SWELL
                          AIR SEA DIR/SP/G            HT/PER HT/PER
                          (F)     (DEG/KT/KT) (MB)    (FT/S) (FT/S)
SHELL POINT      NOT AVBL
KEATON BEACH               67     200/ 13/ 15 1015.5R
CEDAR KEY                  68     210/ 12/ 15 1016.0R
FERNANDINA                 66 61  170/  4/  6 1015.8R
30.7N   81.3W                 59                N/A     2/ 8
MAYPORT                    67 60  200/  4/  5 1015.4R
31.4N   80.9W              62 58  200/ 12/ 14 1014.2R   2/ 8   2/ 8
ST AUGUSTINE               68 60  210/  4/  5 1016.1R

$$
FLZ040-043>046-052-053-057-058-063-144-181100-
INTERIOR CENTRAL FLORIDA
  
CITY           SKY/WX    TMP DP  RH WIND       PRES   REMARKS
OCALA          CLOUDY    68  65  90 S6        30.01R                  
LEESBURG       FAIR      67  64  90 S7        30.02R                  
SANFORD        FAIR      68  64  87 S7        30.01S                  
ORLANDO EXEC   FAIR      68  64  87 S5        30.02S                  
ORLANDO INTL   FAIR      65  62  90 S6        30.02S                  
KISSIMMEE      FAIR      65  64  97 S3        30.03S                  
WINTER HAVEN   MOCLDY    71  67  87 S6        30.03S                  
LAKELAND       FAIR      68  64  88 S7        30.02S                  
BARTOW         MOCLDY    68  66  94 S5        30.02R                  
SEBRING        FAIR      70  69  96 S8        30.03S                  
OKEECHOBEE     CLOUDY    72  70  94 CALM      30.04R                  

$$
FLZ041-047-054-059-064-141-147-181100-
EAST CENTRAL FLORIDA
  
CITY           SKY/WX    TMP DP  RH WIND       PRES   REMARKS
DAYTONA BEACH  MOCLDY    67  66  97 SW6       30.02R                  
DELAND         CLOUDY    66  63  88 S5        30.01S                  
JFK SPACE CTR  FAIR     N/A N/A N/A SW6       30.03R                  
CAPE CANAVERAL FAIR      71  69  93 S6        30.01S                  
PATRICK AFB    FAIR      69  69 100 S7        30.02S                  
MELBOURNE      FAIR      70  67  90 S7        30.03S                  
VERO BEACH     CLOUDY    72  69  90 S5        30.04R                  
FT PIERCE      CLOUDY    73  69  87 S5        30.04R                  
STUART         CLOUDY    73  70  88 S3        30.05S                  

STATION/POSITION SKY/WX   TEMP    WIND        PRES    WAVE   SWELL
                          AIR SEA DIR/SP/G            HT/PER HT/PER
                          (F)     (DEG/KT/KT) (MB)    (FT/S) (FT/S)
28.5N   80.2W              66     200/  6/  6 1017.3
28.9N   78.5W              76 75  190/ 16/ 19 1017.6R   4/ 8   2/ 8
TRIDENT PIER               71 66  190/  8/ 10 1017.8R
28.4N   80.5W                 65                N/A     2/ 5

$$
FLZ050-056-061-142-242-148-248-149-249-151-251-155-255-
160-260-181100-
WEST CENTRAL FLORIDA
  
CITY           SKY/WX    TMP DP  RH WIND       PRES   REMARKS
CRYSTAL RIVER  CLOUDY    70  64  83 CALM      30.01R                  
INVERNESS      FAIR      64  64 100 CALM      30.01S                  
BROOKSVILLE    FAIR      64  63  96 SE5       30.01F                  
CLEARWATER AIR FAIR      70  68  94 S5        30.00S                  
ST PETE CLEARW FAIR      70  67  90 S8        30.00S                  
TAMPA INTL     FAIR      71  68  90 S8        30.01S                  
TAMPA EXEC     FAIR      70  68  94 S5        30.02S                  
PLANT CITY     FAIR      72  68  88 S6        30.03S                  
MACDILL AFB    FAIR      69  66  91 S6        30.00S                  
PETER O KNIGHT CLOUDY   N/A N/A N/A S6        30.01S                  
ST PETERSBURG  NOT AVBL                                               
SARASOTA       FAIR      70  69  97 SE7       29.99S                  
VENICE         MOCLDY    72  72 100 SE7       30.02R                  

STATION/POSITION SKY/WX   TEMP    WIND        PRES    WAVE   SWELL
                          AIR SEA DIR/SP/G            HT/PER HT/PER
                          (F)     (DEG/KT/KT) (MB)    (FT/S) (FT/S)
27.3N   84.2W                 71                N/A     4/ 7
CLEARWATER BEACH           74 68  150/ 10/ 13 1015.9F
MIDDLE TAMPA BAY                  170/  8/  9 1016.1S
VENICE                     73 68  140/ 10/ 12   N/A

$$
FLZ066-069-070-075>078-162-262-165-265-181100-
SOUTHWEST FLORIDA AND KEYS
  
CITY           SKY/WX    TMP DP  RH WIND       PRES   REMARKS
PUNTA GORDA    FAIR      70  68  93 S6        30.03S                  
FT MYERS       FAIR      72  71  97 SE3       30.02R                  
SOUTHWEST INTL MOCLDY    71  70  96 S5        30.03R                  
NAPLES         CLOUDY    74  73  97 E5        30.02R                  
IMMOKALEE      FOG       70  70 100 CALM      30.01S VSB 1/4          
MARATHON       FAIR      80  74  81 SE7       30.01S                  
KEY WEST NAS   FAIR      78  74  87 S9        30.01R                  
KEY WEST INTL  FAIR      79  74  84 S10       30.02R                  

STATION/POSITION SKY/WX   TEMP    WIND        PRES    WAVE   SWELL
                          AIR SEA DIR/SP/G            HT/PER HT/PER
                          (F)     (DEG/KT/KT) (MB)    (FT/S) (FT/S)
NAPLES                     75 70  110/  5/  7 1016.5R
26.0N   85.6W              79 80  180/ 14/ 16 1014.1
DRY TORTUGAS               76     150/  6/  7 1015.6R
SAND KEY                   77                 1016.2R
SOMBRERO KEY               78                 1015.8R
LONG KEY                   77 76  150/ 10/ 11 1016.3R
MOLASSES REEF              78     170/ 14       N/A

$$
FLZ067-068-071>074-168-172>174-181100-
SOUTHEAST FLORIDA 
  
CITY           SKY/WX    TMP DP  RH WIND       PRES   REMARKS
W PALM BEACH   MOCLDY    76  71  85 S7        30.04S                  
FT LAUDER-EXEC FAIR      76  75  97 SE7       30.04R                  
FT LAUDERDALE  FAIR      77  75  93 S7        30.03S                  
POMPANO BEACH  FAIR      78  73  84 S8        30.04R                  
PEMBROKE PINES FAIR      75  72  90 SE6       30.05R                  
OPA LOCKA      FAIR      76  72  87 S6        30.04S                  
MIAMI          FAIR      76  75  97 SE6       30.04R                  
WEST KENDALL   MOCLDY    76  73  91 SE5       30.03S                  
HOMESTEAD      FAIR      75  73  94 SE5       30.03R                  

STATION/POSITION SKY/WX   TEMP    WIND        PRES    WAVE   SWELL
                          AIR SEA DIR/SP/G            HT/PER HT/PER
                          (F)     (DEG/KT/KT) (MB)    (FT/S) (FT/S)
PORT EVERGLADES            77     150/  7/ 11 1017.1R
VIRGINIA KEY               77 77  150/  6/  7 1016.5R
LAKE WORTH                        200/ 15/ 17 1018.3R
FOWEY ROCKS                78 77  150/ 18/ 19 1017.7R
SETTLEMENT POINT           76     180/  8/ 10 1017.9R

$$